Regional Weather Roundup
Issued by NWS

Home | Current Version | Previous Version | Text Only | Print | Product List | Glossary On
Versions: 1 2 3 4 5 6 7 8 9 10 11 12 13 14 15 16 17 18 19 20 21 22 23 24 25 26 27 28 29 30 31 32 33 34 35 36 37 38 39 40 41 42 43 44 45 46 47 48 49 50
657
ASUS43 KLSX 240310
RWRMO

WEATHER SUMMARY FOR MISSOURI
NATIONAL WEATHER SERVICE SPRINGFIELD MO
900 PM CST MON JAN 23 2017

NOTE: "FAIR" INDICATES FEW OR NO CLOUDS BELOW 12,000 FEET WITH NO
       SIGNIFICANT WEATHER AND/OR OBSTRUCTIONS TO VISIBILITY.
       CURRENT SKY AND/OR WEATHER CONDITIONS ARE NOT AVAILABLE FOR
       CHILLICOTHE AND FARMINGTON.

MOZ001>031-035>038-043-044-053-054-240400-
...NORTHERN AND WESTERN MISSOURI...

CITY           SKY/WX    TMP DP  RH WIND       PRES   REMARKS
KANSAS CTY INT CLEAR     34  29  82 E7        29.83S WCI  28
KANSAS C DTWN  CLEAR     37  32  82 E5        29.84S
LEE`S SUMMIT   CLEAR     35  32  88 SE6       29.84S FOG
ST JOSEPH      CLEAR     32  30  92 E7        29.85S WCI  26
CHILLICOTHE      N/A     32  28  85 CALM      29.88S
KIRKSVILLE     CLOUDY    33  30  88 CALM      29.88R

$$
MOZ066>068-077>081-088>096-101>105-240400-
...SOUTHWEST MISSOURI...

CITY           SKY/WX    TMP DP  RH WIND       PRES   REMARKS
SPRINGFIELD    CLEAR     35  29  78 SE3       29.83R
JOPLIN         CLEAR     36  32  85 E5        29.82S
BRANSON        CLEAR     39  32  75 CALM      29.84S

$$
MOZ032>034-039>042-045>050-055>058-069>072-240400-
...CENTRAL MISSOURI...

CITY           SKY/WX    TMP DP  RH WIND       PRES   REMARKS
COLUMBIA       CLOUDY    35  31  85 NW5       29.87R
JEFFERSON CITY CLEAR     35  30  82 N3        29.88S
ROLLA          CLEAR     30  29  96 CALM      29.84R
SEDALIA        CLEAR     33  30  88 CALM      29.87S
WHITEMAN AFB   CLEAR     32  32 100 CALM      29.84F
WARRENSBURG    CLEAR     34  32  93 CALM      29.85F
OSAGE BEACH    CLEAR     29  26  89 CALM      29.87S

$$
MOZ051-052-059>065-240400-
...EAST CENTRAL MISSOURI...

CITY           SKY/WX    TMP DP  RH WIND       PRES   REMARKS
ST LOUIS INTL  CLOUDY    41  32  70 NW7       29.86S
SPIRIT OF STL  CLOUDY    42  34  73 N5        29.86R
ST CHARLES     CLOUDY    40  33  76 NW6       29.86R

$$
MOZ072>076-082>087-097>100-106>115-240400-
...SOUTH CENTRAL AND SOUTHEAST MISSOURI...

CITY           SKY/WX    TMP DP  RH WIND       PRES   REMARKS
CAPE GIRARDEAU CLEAR     39  33  79 N3        29.86S
FARMINGTON     CLEAR     31  29  92 CALM      29.85S
POPLAR BLUFF   CLEAR     38  36  92 CALM      29.86S
WEST PLAINS    CLEAR     33  30  88 CALM      29.85S

$$




USA.gov is the U.S. government's official web portal to all federal, state and local government web resources and services.